TimeEDT,TemperatureF,Dew PointF,Humidity,Sea Level PressureIn,VisibilityMPH,Wind Direction,Wind SpeedMPH,Gust SpeedMPH,PrecipitationIn,Events,Conditions,WindDirDegrees,DateUTC
12:53 AM,42.1,39.0,89,29.92,10.0,WNW,5.8,-,N/A,,Overcast,300,2013-04-10 04:53:00
1:53 AM,39.9,39.0,97,29.94,8.0,West,4.6,-,0.00,,Overcast,260,2013-04-10 05:53:00
2:53 AM,41.0,39.0,93,29.96,6.0,NNE,3.5,-,0.00,,Overcast,30,2013-04-10 06:53:00
3:53 AM,41.0,39.9,96,29.95,5.0,Calm,Calm,-,0.00,,Overcast,0,2013-04-10 07:53:00
4:53 AM,41.0,39.9,96,29.92,4.0,Calm,Calm,-,N/A,,Overcast,0,2013-04-10 08:53:00
5:53 AM,42.1,39.9,92,29.91,7.0,Calm,Calm,-,N/A,,Mostly Cloudy,0,2013-04-10 09:53:00
6:53 AM,44.1,42.1,93,29.90,6.0,Calm,Calm,-,N/A,,Mostly Cloudy,0,2013-04-10 10:53:00
7:53 AM,45.0,42.1,90,29.89,6.0,NNW,3.5,-,N/A,,Mostly Cloudy,330,2013-04-10 11:53:00
8:53 AM,43.0,39.9,89,29.89,4.0,NNE,6.9,-,N/A,,Overcast,30,2013-04-10 12:53:00
9:53 AM,44.1,42.1,93,29.88,6.0,NNE,9.2,-,N/A,,Overcast,20,2013-04-10 13:53:00
10:12 AM,42.8,39.2,87,29.89,3.0,North,10.4,19.6,0.01,Rain,Light Rain,10,2013-04-10 14:12:00
10:32 AM,41.0,39.2,93,29.89,4.0,NE,12.7,-,0.01,,Overcast,40,2013-04-10 14:32:00
10:53 AM,42.1,41.0,96,29.91,7.0,NE,16.1,-,0.01,,Overcast,40,2013-04-10 14:53:00
11:15 AM,44.6,42.8,93,29.87,7.0,ENE,5.8,-,N/A,,Overcast,60,2013-04-10 15:15:00
11:53 AM,43.0,41.0,93,29.92,5.0,North,10.4,-,0.02,,Overcast,10,2013-04-10 15:53:00
12:06 PM,42.8,41.0,93,29.90,2.0,NE,9.2,-,0.05,Rain,Rain,50,2013-04-10 16:06:00
12:19 PM,42.8,41.0,93,29.89,4.0,East,6.9,-,0.06,Rain,Light Rain,80,2013-04-10 16:19:00
12:39 PM,42.8,42.8,100,29.89,3.0,ENE,3.5,-,0.07,,Overcast,60,2013-04-10 16:39:00
12:53 PM,44.1,43.0,96,29.85,2.5,East,6.9,-,0.07,,Mostly Cloudy,90,2013-04-10 16:53:00
1:03 PM,46.4,46.4,100,29.82,4.0,SE,4.6,-,0.00,Rain,Light Rain,140,2013-04-10 17:03:00
2:53 PM,46.0,44.1,93,29.83,4.0,North,3.5,-,N/A,,Overcast,350,2013-04-10 18:53:00
3:03 PM,44.6,42.8,93,29.86,4.0,North,15.0,26.5,N/A,,Overcast,350,2013-04-10 19:03:00
3:24 PM,42.8,41.0,93,29.85,4.0,NE,17.3,23.0,N/A,,Overcast,50,2013-04-10 19:24:00
3:33 PM,41.0,39.2,93,29.86,5.0,NNE,15.0,-,N/A,,Overcast,30,2013-04-10 19:33:00
3:53 PM,44.1,42.1,93,29.83,8.0,NE,11.5,-,N/A,,Mostly Cloudy,50,2013-04-10 19:53:00
4:00 PM,46.4,44.6,93,29.82,7.0,NE,5.8,-,N/A,,Mostly Cloudy,50,2013-04-10 20:00:00
4:51 PM,42.8,41.0,93,29.90,2.5,North,8.1,31.1,0.11,Rain,Heavy Rain,360,2013-04-10 20:51:00
4:53 PM,42.1,39.9,92,29.90,2.0,NNE,5.8,27.6,0.13,Rain,Heavy Rain,20,2013-04-10 20:53:00
4:57 PM,42.8,41.0,93,29.87,3.0,SE,9.2,18.4,0.01,Rain,Heavy Rain,130,2013-04-10 20:57:00
5:53 PM,46.0,45.0,96,29.84,3.0,NNW,9.2,19.6,0.04,Rain,Light Rain,330,2013-04-10 21:53:00
6:03 PM,42.8,42.8,100,29.86,3.0,North,17.3,24.2,0.00,,Mostly Cloudy,350,2013-04-10 22:03:00
6:14 PM,42.8,41.0,93,29.87,2.5,North,16.1,-,0.00,,Mostly Cloudy,10,2013-04-10 22:14:00
6:17 PM,42.8,41.0,93,29.87,3.0,North,17.3,-,0.00,,Mostly Cloudy,10,2013-04-10 22:17:00
6:41 PM,41.0,39.2,93,29.89,5.0,NNE,21.9,29.9,0.00,,Overcast,30,2013-04-10 22:41:00
6:53 PM,39.9,39.0,97,29.92,8.0,NE,20.7,31.1,0.00,,Overcast,40,2013-04-10 22:53:00
7:17 PM,39.2,39.2,100,29.91,5.0,NE,17.3,29.9,N/A,,Overcast,40,2013-04-10 23:17:00
7:53 PM,39.9,39.9,100,29.97,5.0,NE,9.2,-,0.03,Rain-Thunderstorm,Thunderstorms and Rain,40,2013-04-10 23:53:00
8:41 PM,41.0,39.2,93,29.87,4.0,ENE,20.7,-,0.15,Rain-Thunderstorm,Thunderstorms and Rain,60,2013-04-11 00:41:00
8:53 PM,41.0,39.9,96,29.85,8.0,East,11.5,23.0,0.17,Rain-Thunderstorm,Thunderstorms and Rain,80,2013-04-11 00:53:00
9:04 PM,42.8,41.0,93,29.82,9.0,SSE,10.4,25.3,0.00,Rain-Thunderstorm,Thunderstorms and Rain,160,2013-04-11 01:04:00
9:25 PM,42.8,42.8,100,29.88,10.0,North,13.8,-,0.00,Rain-Thunderstorm,Thunderstorms and Rain,350,2013-04-11 01:25:00
9:42 PM,42.8,39.2,87,29.91,10.0,NNE,16.1,-,0.01,,Overcast,30,2013-04-11 01:42:00
9:53 PM,41.0,39.9,96,29.92,10.0,NE,16.1,-,0.01,,Overcast,50,2013-04-11 01:53:00
10:36 PM,42.8,41.0,93,29.87,10.0,NNE,6.9,-,N/A,,Scattered Clouds,30,2013-04-11 02:36:00
10:48 PM,42.8,41.0,93,29.88,10.0,NNE,10.4,-,N/A,,Scattered Clouds,20,2013-04-11 02:48:00
10:53 PM,42.1,39.9,92,29.90,10.0,NNE,10.4,-,N/A,,Mostly Cloudy,20,2013-04-11 02:53:00
11:31 PM,42.8,39.2,87,29.92,10.0,NE,8.1,-,N/A,,Overcast,40,2013-04-11 03:31:00
11:53 PM,42.1,39.9,92,29.92,9.0,NNE,10.4,-,0.00,Rain,Light Rain,30,2013-04-11 03:53:00